Weather History for Weslaco, TX

Change the Weather History Date:

Tuesday, December 4, 2012

  Actual Average (KMFE) Record (KMFE)
Temperature  
Mean Temperature 74 °F 64 °F  
Max Temperature 87 °F 74 °F 92 °F (1978)
Min Temperature 62 °F 54 °F 34 °F (1900)
Degree Days  
Heating Degree Days 0 4  
Month to date heating degree days 16  
Since 1 July heating degree days 76  
Cooling Degree Days 10 3  
Month to date cooling degree days 14  
Year to date cooling degree days 4383  
Growing Degree Days 24 (Base 50)    
Moisture  
Dew Point 63 °F    
Average Humidity 69    
Maximum Humidity 94    
Minimum Humidity 33    
Precipitation  
Precipitation 0.00 in 0.03 in 0.69 in (1965)
Month to date precipitation 0.12  
Year to date precipitation 21.13  
Sea Level Pressure  
Sea Level Pressure 30.05 in    
Wind  
Wind Speed 6 mph (South)    
Max Wind Speed 13 mph    
Max Gust Speed 18 mph    
Visibility 9 miles    
Events Fog    
T = Trace of Precipitation, MM = Missing Value Source: NWS Daily Summary

Daily Weather History Graph

Daily Weather History Graph

Search for Another Location

Airport:

Trip Planner

Search our weather history database for the weather conditions in past years. The results will help you decide how hot, cold, wet, or windy it might be!

Date:

Astronomy

Dec. 04, 2012 Rise Set
Actual Time 7:04 AM CST 5:39 PM CST
Civil Twilight 6:39 AM CST 6:04 PM CST
Nautical Twilight 6:11 AM CST 6:33 PM CST
Astronomical Twilight 5:43 AM CST 7:01 PM CST
Moon 11:06 PM CST (12/4) 11:18 AM CST (12/4)
Length of Visible Light 11h 25m
Length of Day
10h 35m
Waning Gibbous, 69% of the Moon is Illuminated
Dec 4
Waning Gibbous
Dec 6
Last Quarter
Dec 13
New
Dec 19
First Quarter
Dec 28
Full

Hourly Weather History & Observations

Time (CST) Temp. Heat Index Dew Point Humidity Pressure Visibility Wind Dir Wind Speed Gust Speed Precip Events Conditions
12:15 AM 69.8 °F - 64.4 °F 83% 30.01 in 10.0 mi SSE 6.9 mph - N/A   Unknown
12:35 AM 69.8 °F - 64.4 °F 83% 30.00 in 10.0 mi SSE 6.9 mph - N/A   Unknown
12:55 AM 69.8 °F - 64.4 °F 83% 29.99 in 10.0 mi SSE 9.2 mph - N/A   Unknown
1:15 AM 69.8 °F - 64.4 °F 83% 29.99 in 10.0 mi SSE 8.1 mph - N/A   Unknown
1:35 AM 69.8 °F - 66.2 °F 88% 30.00 in 10.0 mi South 6.9 mph - N/A   Unknown
1:55 AM 69.8 °F - 64.4 °F 83% 30.00 in 10.0 mi SSE 6.9 mph - N/A   Unknown
2:15 AM 69.8 °F - 64.4 °F 83% 30.00 in 10.0 mi SSE 6.9 mph - N/A   Unknown
2:55 AM 68.0 °F - 64.4 °F 88% 29.99 in 10.0 mi SSE 4.6 mph - N/A   Unknown
3:15 AM 68.0 °F - 64.4 °F 88% 30.00 in 10.0 mi Calm Calm - N/A   Unknown
3:35 AM 68.0 °F - 64.4 °F 88% 30.00 in 10.0 mi Calm Calm - N/A   Unknown
3:55 AM 66.2 °F - 62.6 °F 88% 30.00 in 10.0 mi Calm Calm - N/A   Unknown
4:15 AM 66.2 °F - 62.6 °F 88% 30.00 in 7.0 mi Calm Calm - N/A   Unknown
4:35 AM 64.4 °F - 62.6 °F 94% 30.01 in 5.0 mi Calm Calm - N/A   Mist
4:55 AM 64.4 °F - 62.6 °F 94% 30.01 in 0.5 mi Calm Calm - N/A Fog Fog
5:15 AM 64.4 °F - 62.6 °F 94% 30.03 in 0.2 mi Calm Calm - N/A Fog Fog
5:35 AM 62.6 °F - 60.8 °F 94% 30.03 in 0.5 mi Calm Calm - N/A Fog Fog
5:55 AM 62.6 °F - 60.8 °F 94% 30.03 in 0.2 mi Calm Calm - N/A Fog Fog
6:15 AM 62.6 °F - 60.8 °F 94% 30.05 in 0.5 mi Calm Calm - N/A Fog Fog
6:35 AM 62.6 °F - 60.8 °F 94% 30.05 in 0.5 mi Calm Calm - N/A Fog Fog
6:55 AM 62.6 °F - 60.8 °F 94% 30.05 in 2.5 mi Calm Calm - N/A   Mist
7:15 AM 62.6 °F - 60.8 °F 94% 30.05 in 0.8 mi SE 3.5 mph - N/A   Mist
7:35 AM 64.4 °F - 62.6 °F 94% 30.05 in 3.0 mi SE 3.5 mph - N/A   Mist
7:55 AM 68.0 °F - 64.4 °F 88% 30.06 in 5.0 mi SSE 4.6 mph - N/A   Mist
8:15 AM 68.0 °F - 66.2 °F 94% 30.07 in 7.0 mi SE 5.8 mph - N/A   Unknown
8:35 AM 69.8 °F - 68.0 °F 94% 30.08 in 10.0 mi SE 3.5 mph - N/A   Unknown
8:55 AM 73.4 °F - 68.0 °F 83% 30.09 in 10.0 mi SSE 6.9 mph - N/A   Unknown
9:15 AM 75.2 °F - 68.0 °F 78% 30.09 in 10.0 mi South 8.1 mph - N/A   Unknown
9:35 AM 75.2 °F - 68.0 °F 78% 30.10 in 10.0 mi South 10.4 mph - N/A   Unknown
9:55 AM 78.8 °F - 68.0 °F 69% 30.10 in 10.0 mi South 11.5 mph - N/A   Unknown
10:15 AM 80.6 °F 82.7 °F 66.2 °F 61% 30.10 in 10.0 mi South 9.2 mph - N/A   Unknown
10:35 AM 80.6 °F 82.3 °F 64.4 °F 58% 30.10 in 7.0 mi South 12.7 mph 17.3 mph N/A   Unknown
10:55 AM 82.4 °F 83.9 °F 64.4 °F 54% 30.10 in 10.0 mi South 12.7 mph 18.4 mph N/A   Unknown
11:15 AM 82.4 °F 83.4 °F 62.6 °F 51% 30.09 in 10.0 mi SSW 10.4 mph - N/A   Unknown
11:35 AM 84.2 °F 85.0 °F 62.6 °F 48% 30.09 in 10.0 mi SSW 12.7 mph 17.3 mph N/A   Unknown
12:15 PM 86.0 °F 86.1 °F 60.8 °F 43% 30.08 in 10.0 mi South 10.4 mph - N/A   Unknown
12:35 PM 86.0 °F 85.4 °F 59.0 °F 40% 30.07 in 10.0 mi South 9.2 mph - N/A   Unknown
12:55 PM 86.0 °F 85.4 °F 59.0 °F 40% 30.06 in 10.0 mi South 4.6 mph - N/A   Unknown
1:15 PM 87.8 °F 87.1 °F 59.0 °F 38% 30.05 in 10.0 mi SW 9.2 mph - N/A   Unknown
1:35 PM 87.8 °F 87.1 °F 59.0 °F 38% 30.04 in 10.0 mi South 6.9 mph - N/A   Unknown
1:55 PM 87.8 °F 87.1 °F 59.0 °F 38% 30.03 in 10.0 mi South 8.1 mph - N/A   Unknown
2:15 PM 87.8 °F 87.1 °F 59.0 °F 38% 30.02 in 10.0 mi South 8.1 mph - N/A   Unknown
2:35 PM 86.0 °F 85.4 °F 59.0 °F 40% 30.01 in 10.0 mi South 5.8 mph - N/A   Unknown
2:55 PM 87.8 °F 86.5 °F 57.2 °F 35% 30.01 in 10.0 mi South 9.2 mph 17.3 mph N/A   Unknown
3:15 PM 87.8 °F 86.1 °F 55.4 °F 33% 30.01 in 10.0 mi WSW 6.9 mph - N/A   Unknown
3:35 PM 87.8 °F 86.1 °F 55.4 °F 33% 30.01 in 10.0 mi SSE 8.1 mph - N/A   Unknown
3:55 PM 87.8 °F 86.1 °F 55.4 °F 33% 30.01 in 10.0 mi SW 8.1 mph - N/A   Unknown
4:15 PM 87.8 °F 86.1 °F 55.4 °F 33% 30.01 in 10.0 mi WSW 3.5 mph - N/A   Unknown
4:35 PM 87.8 °F 87.1 °F 59.0 °F 38% 30.01 in 10.0 mi West 5.8 mph - N/A   Unknown
4:55 PM 86.0 °F 85.4 °F 59.0 °F 40% 30.01 in 10.0 mi WNW 3.5 mph - N/A   Unknown
5:15 PM 82.4 °F 82.5 °F 59.0 °F 45% 30.02 in 10.0 mi WNW 4.6 mph - N/A   Unknown
5:35 PM 80.6 °F 81.5 °F 60.8 °F 51% 30.03 in 10.0 mi NW 3.5 mph - N/A   Unknown
5:55 PM 80.6 °F 81.5 °F 60.8 °F 51% 30.04 in 10.0 mi Calm Calm - N/A   Unknown
6:15 PM 78.8 °F - 60.8 °F 54% 30.04 in 10.0 mi NNE 3.5 mph - N/A   Unknown
6:35 PM 78.8 °F - 60.8 °F 54% 30.05 in 10.0 mi Calm Calm - N/A   Unknown
6:55 PM 80.6 °F 81.8 °F 62.6 °F 54% 30.07 in 10.0 mi SSE 10.4 mph - N/A   Unknown
7:15 PM 78.8 °F - 64.4 °F 61% 30.07 in 10.0 mi South 11.5 mph - N/A   Unknown
7:35 PM 78.8 °F - 64.4 °F 61% 30.09 in 10.0 mi SSE 8.1 mph - N/A   Unknown
7:55 PM 77.0 °F - 66.2 °F 69% 30.10 in 10.0 mi South 6.9 mph - N/A   Unknown
8:15 PM 77.0 °F - 66.2 °F 69% 30.10 in 10.0 mi SSE 8.1 mph - N/A   Unknown
8:35 PM 75.2 °F - 66.2 °F 73% 30.11 in 10.0 mi South 8.1 mph - N/A   Unknown
8:55 PM 75.2 °F - 66.2 °F 73% 30.11 in 10.0 mi South 8.1 mph - N/A   Unknown
9:15 PM 73.4 °F - 66.2 °F 78% 30.11 in 10.0 mi South 6.9 mph - N/A   Unknown
9:35 PM 73.4 °F - 66.2 °F 78% 30.11 in 10.0 mi South 4.6 mph - N/A   Unknown
9:55 PM 73.4 °F - 66.2 °F 78% 30.11 in 10.0 mi South 4.6 mph - N/A   Unknown
10:15 PM 71.6 °F - 66.2 °F 83% 30.11 in 10.0 mi South 4.6 mph - N/A   Unknown
10:35 PM 71.6 °F - 66.2 °F 83% 30.10 in 10.0 mi South 5.8 mph - N/A   Unknown
10:55 PM 71.6 °F - 66.2 °F 83% 30.10 in 10.0 mi SSW 4.6 mph - N/A   Unknown
11:15 PM 71.6 °F - 66.2 °F 83% 30.10 in 10.0 mi SSW 4.6 mph - N/A   Unknown
11:35 PM 71.6 °F - 66.2 °F 83% 30.10 in 10.0 mi South 3.5 mph - N/A   Unknown
11:55 PM 71.6 °F - 66.2 °F 83% 30.12 in 10.0 mi Calm Calm - N/A   Unknown